C/2024 J3 ( ATLAS )

Japanese version
Home page
Updated on March 23, 2025

---------------------------------------------------------------------

* Profile

Discovery Date May 6, 2024
Magnitude 17.6 mag
Discoverer Asteroid Terrestrial-Impact Last Alert System (ATLAS) search program

* Pictures

* Orbital Elements

Epoch 2024 Oct. 17.0 TT = JDT 2460600.5
T 2026 Nov. 25.25361 TT                                 Rudenko
q   3.8646160            (2000.0)            P               Q
z  -0.0002580      Peri.   74.09220     +0.30481246     -0.19908443
 +/-0.0000156      Node   285.96239     -0.55214475     +0.75986865
e   1.0009972      Incl.   75.63253     +0.77603192     +0.61884168
From 195 observations 2024 May 6-Oct. 24, mean residual 0".5.

* Finding Charts

* Magnitudes Graph

        m1 = 4.2 + 5 log d + 10.0 log r

---------------------------------------------------------------------

The orbital elements are published on M.P.E.C. 2024-U109.
The charts are made with StellaNavigator Ver.11 (AstroArts).
The magnitudes graphs are made with Comet for Windows.

---------------------------------------------------------------------

Copyright(C) Seiichi Yoshida (comet@aerith.net). All rights reserved.